Date String (YYYY-MM-DD hh:mm:ss) UTC,Instrument flags,absolute air pressure of the measurement (hPa),sample flow rate (lpm),inlet stack bypass flow (lpm),air temperature of the measurement (°C),ambient temperature measured by the external sensor (°C),aerosol sample conditioner tube jacket temperature (°C),OPC LED temperature (°C),internal box temperature (°C),relative humidity of the measurement (%),span deviation,mass concentration of particles derived from Lorenz-Mie calculation of OPC scattering (μg/m³),mass concentration of particles derived from Lorenz-Mie calculation of OPC scattering (μg/m³),mass concentration of particles derived from Lorenz-Mie calculation of OPC scattering (μg/m³)
DateTimeUTC,F1_M11,P_M11,Q1_M11,Q2_M11,T1_M11,T2_M11,T3_M11,T4_M11,T5_M11,U1_M11,ZSPAN_M11,X2_M11,X0_M11,X1_M11
2023-07-02 17:00:00,SystemResetWarning,0832.8,4.99,000.00,028.9,026.3,000.0,037.4,030.3,28.8,-001.0,0004.99,0011.51,0004.59
2023-07-02 17:01:00,SystemResetWarning,0832.8,5.00,000.00,029.0,026.6,000.0,037.4,030.4,29.1,-001.2,0004.99,0011.83,0004.57
2023-07-02 17:02:00,SystemResetWarning,0832.8,5.00,000.00,029.0,026.9,000.0,037.4,030.5,29.1,-001.1,0005.00,0011.65,0004.57
2023-07-02 17:03:00,SystemResetWarning,0832.9,4.99,000.00,029.0,027.2,000.0,037.4,030.5,29.3,-001.2,0004.97,0011.46,0004.57
2023-07-02 17:04:00,SystemResetWarning,0832.9,4.99,000.00,029.0,027.4,000.0,037.4,030.6,28.9,-000.7,0004.95,0011.39,0004.56
2023-07-02 17:05:00,SystemResetWarning,0832.9,5.00,000.00,029.1,027.6,000.0,037.5,030.7,30.0,-000.2,0004.94,0010.74,0004.56
2023-07-02 17:06:00,SystemResetWarning,0832.8,5.00,000.00,029.1,027.0,000.0,037.4,030.7,30.6,0000.1,0004.97,0010.66,0004.57
2023-07-02 17:07:00,SystemResetWarning,0832.8,4.99,000.00,029.1,025.9,000.0,037.3,030.5,30.3,0000.4,0004.96,0010.54,0004.58
2023-07-02 17:08:00,SystemResetWarning,0832.8,5.01,000.00,029.1,025.8,000.0,037.3,030.4,29.3,0000.9,0004.94,0010.52,0004.57
2023-07-02 17:09:00,SystemResetWarning,0832.7,5.01,000.00,029.0,026.1,000.0,037.3,030.3,28.5,0000.6,0004.93,0009.96,0004.56
2023-07-02 17:10:00,SystemResetWarning,0832.8,5.00,000.00,029.0,026.4,000.0,037.3,030.4,28.6,-000.0,0004.92,0008.77,0004.55
2023-07-02 17:11:00,SystemResetWarning,0832.8,4.98,000.00,029.0,026.7,000.0,037.4,030.5,29.1,-000.0,0004.93,0008.25,0004.55
2023-07-02 17:12:00,SystemResetWarning,0832.7,5.01,000.00,029.0,027.0,000.0,037.4,030.5,29.3,-000.4,0004.90,0007.81,0004.53
2023-07-02 17:13:00,SystemResetWarning,0832.7,5.01,000.00,029.0,027.3,000.0,037.4,030.6,28.2,-000.8,0004.86,0007.78,0004.50
2023-07-02 17:14:00,SystemResetWarning,0832.8,4.99,000.00,029.1,027.5,000.0,037.5,030.7,27.3,-000.5,0004.88,0007.83,0004.49
2023-07-02 17:15:00,SystemResetWarning,0832.8,4.99,000.00,029.1,027.0,000.0,037.4,030.7,26.8,-000.6,0004.90,0007.87,0004.50
2023-07-02 17:16:00,SystemResetWarning,0832.7,5.00,000.00,029.1,025.8,000.0,037.3,030.5,26.1,-000.9,0004.90,0008.44,0004.50
2023-07-02 17:17:00,SystemResetWarning,0832.7,5.01,000.00,029.0,025.7,000.0,037.2,030.4,26.6,-001.1,0004.87,0008.39,0004.49
2023-07-02 17:18:00,SystemResetWarning,0832.7,5.00,000.00,029.0,026.0,000.0,037.3,030.3,25.8,-000.9,0004.82,0008.30,0004.47
2023-07-02 17:19:00,SystemResetWarning,0832.8,5.00,000.00,029.0,026.4,000.0,037.3,030.4,27.1,-001.0,0004.82,0008.31,0004.47
2023-07-02 17:20:00,SystemResetWarning,0832.8,5.00,000.00,029.0,026.7,000.0,037.4,030.5,26.4,-001.0,0004.82,0008.44,0004.47
2023-07-02 17:21:00,SystemResetWarning,0832.8,4.99,000.00,029.0,027.0,000.0,037.4,030.5,25.8,-000.6,0004.80,0008.91,0004.46
2023-07-02 17:22:00,SystemResetWarning,0832.8,5.00,000.00,029.0,027.3,000.0,037.4,030.6,26.3,-000.1,0004.79,0008.91,0004.46
2023-07-02 17:23:00,SystemResetWarning,0832.8,5.00,000.00,029.1,027.5,000.0,037.5,030.7,26.6,0000.6,0004.77,0008.86,0004.45
2023-07-02 17:24:00,SystemResetWarning,0832.8,5.00,000.00,029.1,027.1,000.0,037.4,030.7,24.9,0000.9,0004.75,0008.75,0004.44
2023-07-02 17:25:00,SystemResetWarning,0832.8,5.00,000.00,029.0,025.4,000.0,037.3,030.4,24.6,0000.9,0004.71,0008.74,0004.42
2023-07-02 17:26:00,SystemResetWarning,0832.8,5.00,000.00,029.0,024.7,000.0,037.2,030.3,25.3,0001.2,0004.67,0008.67,0004.39
2023-07-02 17:27:00,SystemResetWarning,0832.8,5.01,000.00,028.9,024.9,000.0,037.2,030.1,25.1,0001.4,0004.65,0008.16,0004.37
2023-07-02 17:28:00,SystemResetWarning,0832.8,5.01,000.00,028.8,025.3,000.0,037.2,030.1,27.2,0001.4,0004.63,0008.17,0004.36
2023-07-02 17:29:00,SystemResetWarning,0832.7,5.00,000.00,028.8,025.8,000.0,037.3,030.2,26.3,0001.6,0004.64,0008.40,0004.35
2023-07-02 17:30:00,SystemResetWarning,0832.8,4.99,000.00,028.8,026.2,000.0,037.3,030.2,25.9,0001.5,0004.64,0008.42,0004.34
2023-07-02 17:31:00,SystemResetWarning,0832.8,5.00,000.00,028.8,026.6,000.0,037.3,030.3,25.5,0001.7,0004.62,0008.42,0004.33
2023-07-02 17:32:00,SystemResetWarning,0832.8,5.01,000.00,028.8,026.9,000.0,037.3,030.4,25.4,0001.7,0004.65,0007.91,0004.32
2023-07-02 17:33:00,SystemResetWarning,0832.8,5.01,000.00,028.9,027.2,000.0,037.3,030.5,25.8,0000.6,0004.68,0007.96,0004.32
2023-07-02 17:34:00,SystemResetWarning,0832.7,5.00,000.00,028.9,027.4,000.0,037.3,030.6,27.0,0000.8,0004.68,0008.00,0004.30
2023-07-02 17:35:00,SystemResetWarning,0832.7,4.99,000.00,028.9,027.6,000.0,037.4,030.6,27.2,0001.0,0004.67,0008.11,0004.30
2023-07-02 17:36:00,SystemResetWarning,0832.7,4.99,000.00,029.0,027.5,000.0,037.3,030.7,27.1,0000.7,0004.66,0008.12,0004.30
2023-07-02 17:37:00,SystemResetWarning,0832.7,5.00,000.00,029.0,025.9,000.0,037.2,030.5,27.4,0000.3,0004.66,0008.06,0004.30
2023-07-02 17:38:00,SystemResetWarning,0832.7,5.00,000.00,028.9,024.8,000.0,037.1,030.2,26.0,0000.0,0004.66,0008.08,0004.30
2023-07-02 17:39:00,SystemResetWarning,0832.6,5.01,000.00,028.8,024.8,000.0,037.1,030.1,26.8,0000.5,0004.70,0008.20,0004.29
2023-07-02 17:40:00,SystemResetWarning,0832.7,5.00,000.00,028.7,025.2,000.0,037.1,030.0,28.3,0000.0,0004.72,0007.98,0004.29
2023-07-02 17:41:00,SystemResetWarning,0832.7,5.00,000.00,028.7,025.6,000.0,037.2,030.1,26.5,0000.0,0004.71,0007.96,0004.29
2023-07-02 17:42:00,SystemResetWarning,0832.6,5.01,000.00,028.7,026.1,000.0,037.2,030.2,27.0,0000.7,0004.71,0008.48,0004.29
2023-07-02 17:43:00,SystemResetWarning,0832.6,4.98,000.00,028.7,026.5,000.0,037.2,030.3,28.2,0002.2,0004.67,0008.43,0004.28
2023-07-02 17:44:00,SystemResetWarning,0832.6,5.00,000.00,028.8,026.8,000.0,037.2,030.4,27.3,0002.2,0004.60,0008.28,0004.27
2023-07-02 17:45:00,SystemResetWarning,0832.6,5.01,000.00,028.8,027.1,000.0,037.2,030.4,26.4,0002.4,0004.60,0008.29,0004.27
2023-07-02 17:46:00,SystemResetWarning,0832.6,5.00,000.00,028.8,027.4,000.0,037.3,030.5,27.2,0002.3,0004.62,0008.26,0004.29
2023-07-02 17:47:00,SystemResetWarning,0832.6,4.99,000.00,028.9,027.6,000.0,037.3,030.6,28.1,0002.3,0004.62,0008.23,0004.29
2023-07-02 17:48:00,SystemResetWarning,0832.6,5.00,000.00,028.9,027.2,000.0,037.2,030.6,26.8,0001.6,0004.62,0008.54,0004.27
2023-07-02 17:49:00,SystemResetWarning,0832.6,5.00,000.00,028.9,025.6,000.0,037.1,030.4,27.0,0001.2,0004.60,0008.48,0004.26
2023-07-02 17:50:00,SystemResetWarning,0832.5,5.00,000.00,028.8,024.9,000.0,037.0,030.2,26.1,0000.9,0004.57,0008.37,0004.26
2023-07-02 17:51:00,SystemResetWarning,0832.6,5.01,000.00,028.7,025.1,000.0,037.0,030.1,25.7,0000.6,0004.55,0008.36,0004.26
2023-07-02 17:52:00,SystemResetWarning,0832.5,5.01,000.00,028.7,025.5,000.0,037.1,030.0,26.3,0000.7,0004.56,0008.46,0004.25
2023-07-02 17:53:00,SystemResetWarning,0832.6,5.00,000.00,028.7,026.0,000.0,037.1,030.1,26.4,0000.4,0004.58,0007.94,0004.24
2023-07-02 17:54:00,SystemResetWarning,0832.5,4.99,000.00,028.7,026.4,000.0,037.1,030.2,25.5,0000.6,0004.60,0008.00,0004.23
2023-07-02 17:55:00,SystemResetWarning,0832.6,5.00,000.00,028.7,026.7,000.0,037.2,030.3,26.6,0000.3,0004.63,0008.19,0004.23
2023-07-02 17:56:00,SystemResetWarning,0832.6,5.01,000.00,028.8,027.0,000.0,037.2,030.4,26.2,0000.2,0004.62,0008.58,0004.22
2023-07-02 17:57:00,SystemResetWarning,0832.6,5.01,000.00,028.8,027.3,000.0,037.2,030.5,25.9,-000.0,0004.59,0009.01,0004.21
2023-07-02 17:58:00,SystemResetWarning,0832.6,5.00,000.00,028.8,027.5,000.0,037.2,030.5,26.3,0000.0,0004.59,0008.94,0004.20
2023-07-02 17:59:00,SystemResetWarning,0832.6,4.99,000.00,028.9,027.4,000.0,037.2,030.6,26.0,0000.1,0004.58,0008.63,0004.20
